Waarnemingen

Advertentie
Mijn weer
Charleroi/Gosselies, België (6449): temperatuur & dauwpunt: 06.07.2020 18:00:00 - 12.07.2020 18:00:00 (CEST)Charleroi/Gosselies, België (6449): windsnelheid & windstoten: 06.07.2020 18:00:00 - 12.07.2020 18:00:00 (CEST)Charleroi/Gosselies, België (6449): windrichting: 06.07.2020 18:00:00 - 12.07.2020 18:00:00 (CEST)Charleroi/Gosselies, België (6449): luchtdruk: 06.07.2020 18:00:00 - 12.07.2020 18:00:00 (CEST)Charleroi/Gosselies, België (6449): zicht: 06.07.2020 18:00:00 - 12.07.2020 18:00:00 (CEST)
Datum & Tijd tt [°C] td [°C] ff [km/u] ff [kn] fx [km/u] fx [kn] dd ppp [hPa] vv [km]
12.07.2020 18:00:00 20,2 7,1 15 8 29 16 NNO 1026,7 10
12.07.2020 17:00:00 20,5 6,8 13 7 - - ONO 1027,0 10
12.07.2020 16:00:00 20,3 6,9 13 7 25 14 NO 1027,5 10
12.07.2020 15:00:00 19,7 7,1 11 6 29 16 NO 1027,6 10
12.07.2020 14:00:00 19,2 6,2 13 7 - - NO 1027,9 10
12.07.2020 13:00:00 19,7 8,9 13 7 22 12 ONO 1028,3 10
12.07.2020 12:00:00 17,9 8,2 13 7 22 12 ONO 1028,6 10
12.07.2020 11:00:00 17,4 10,4 13 7 - - NO 1028,7 10
12.07.2020 10:00:00 16,0 10,8 13 7 22 12 NO 1028,9 10
12.07.2020 09:00:00 14,0 11,0 11 6 18 10 NO 1028,8 10
12.07.2020 08:00:00 12,2 10,1 11 6 - - NO 1028,4 10
12.07.2020 07:00:00 10,9 9,6 9 5 14 8 NNO 1028,2 10
12.07.2020 06:00:00 10,2 9,2 8 4 14 8 N 1028,1 10
12.07.2020 05:00:00 10,9 9,5 9 5 - - N 1027,8 10
12.07.2020 04:00:00 11,6 9,4 9 5 14 8 N 1027,7 10
12.07.2020 03:00:00 12,0 9,5 9 5 11 6 N 1027,8 10
12.07.2020 02:00:00 12,3 9,2 8 4 - - N 1027,8 10
12.07.2020 01:00:00 12,6 8,0 8 4 11 6 NNW 1028,0 10
12.07.2020 00:00:00 13,3 7,3 8 4 11 6 NNW 1027,8 10
11.07.2020 23:00:00 14,3 7,1 8 4 - - NNW 1027,6 10
11.07.2020 22:00:00 15,4 7,9 9 5 25 14 N 1026,9 10
11.07.2020 21:00:00 17,1 8,3 13 7 29 16 NNW 1026,4 10
11.07.2020 20:00:00 17,7 8,2 13 7 - - NNW 1026,0 10
11.07.2020 19:00:00 18,7 8,2 16 9 32 18 N 1025,8 10
11.07.2020 18:00:00 20,0 9,1 13 7 29 16 NNW 1025,5 10
11.07.2020 17:00:00 18,5 8,3 15 8 - - NNW 1025,3 10
11.07.2020 16:00:00 20,0 9,9 13 7 25 14 WNW 1025,3 10
11.07.2020 15:00:00 19,1 9,8 11 6 22 12 WNW 1025,4 10
11.07.2020 14:00:00 18,1 8,7 11 6 - - NW 1025,6 10
11.07.2020 13:00:00 17,9 7,4 13 7 25 14 W 1025,3 10
11.07.2020 12:00:00 17,6 9,3 9 5 22 12 WNW 1025,3 10
11.07.2020 11:00:00 15,6 8,8 5 3 - - - 1025,2 10
11.07.2020 10:00:00 15,6 9,5 4 2 14 8 - 1024,9 10
11.07.2020 09:00:00 14,2 9,8 5 3 11 6 W 1024,6 10
11.07.2020 08:00:00 12,3 9,3 8 4 - - WZW 1024,4 10
11.07.2020 07:00:00 10,9 10,0 5 3 7 4 ZW 1024,1 10
11.07.2020 06:00:00 9,3 8,3 4 2 4 2 WZW 1023,7 10
11.07.2020 05:00:00 9,3 8,2 2 1 - - - 1023,2 10
11.07.2020 04:00:00 10,0 8,2 5 3 7 4 WZW 1022,9 10
11.07.2020 03:00:00 10,5 8,4 2 1 7 4 W 1022,9 10
11.07.2020 02:00:00 11,6 7,9 5 3 - - N 1022,5 10
11.07.2020 01:00:00 12,3 7,8 5 3 11 6 NNW 1022,1 10
11.07.2020 00:00:00 13,3 7,7 8 4 14 8 NNW 1021,4 10
10.07.2020 23:00:00 13,7 7,9 9 5 - - NNW 1020,8 10
10.07.2020 22:00:00 14,7 8,2 9 5 18 10 NNW 1019,9 10
10.07.2020 21:00:00 15,7 8,0 9 5 25 14 NNW 1019,3 10
10.07.2020 20:00:00 17,6 8,8 13 7 - - NW 1018,8 10
10.07.2020 19:00:00 17,8 9,0 13 7 29 16 NNW 1018,3 10
10.07.2020 18:00:00 18,3 10,7 14 8 29 16 NNW 1017,7 20
10.07.2020 17:00:00 18,3 10,3 15 8 - - NNW 1017,3 10
10.07.2020 16:00:00 18,0 11,8 16 9 32 18 NNW 1016,9 10
10.07.2020 15:00:00 18,4 11,3 14 8 32 18 NW 1016,2 20
10.07.2020 14:00:00 18,1 11,1 15 8 - - NW 1015,5 10
10.07.2020 13:00:00 17,3 12,0 15 8 32 18 WNW 1014,9 10
10.07.2020 12:00:00 17,6 13,4 15 8 32 18 W 1014,1 10
10.07.2020 11:00:00 17,4 13,9 18 10 - - W 1013,0 10
10.07.2020 10:00:00 16,0 14,6 18 10 29 16 W 1012,5 10
10.07.2020 09:00:00 15,6 14,4 18 10 36 19 WZW 1011,6 10
10.07.2020 08:00:00 15,4 14,0 21 11 - - WZW 1011,2 7
10.07.2020 07:00:00 15,6 13,5 22 12 36 19 WZW 1010,8 10
10.07.2020 06:00:00 15,5 13,2 26 14 36 19 ZW 1010,8 10
10.07.2020 05:00:00 15,8 13,0 26 14 - - WZW 1010,8 10
10.07.2020 04:00:00 16,1 13,3 24 13 36 19 WZW 1011,1 10
10.07.2020 03:00:00 16,5 13,5 18 10 25 14 ZW 1011,4 10
10.07.2020 02:00:00 16,9 13,8 16 9 - - ZW 1012,0 10
10.07.2020 01:00:00 17,3 13,8 13 7 32 18 WZW 1012,4 10
10.07.2020 00:00:00 19,1 13,7 13 7 22 12 W 1012,1 10
09.07.2020 23:00:00 20,1 14,4 5 3 - - NNW 1012,0 10
09.07.2020 22:00:00 21,5 14,7 8 4 18 10 NW 1011,7 10
09.07.2020 21:00:00 22,7 14,6 5 3 11 6 NW 1011,6 10
09.07.2020 20:00:00 23,8 13,5 5 3 - - W 1011,7 10
09.07.2020 19:00:00 24,3 11,7 15 8 32 18 W 1012,0 10
09.07.2020 18:00:00 24,3 13,0 16 9 40 21 W 1012,6 10
09.07.2020 17:00:00 25,1 12,5 22 12 - - WZW 1013,1 10
09.07.2020 16:00:00 24,0 12,6 24 13 40 21 WZW 1013,7 10
09.07.2020 15:00:00 22,4 13,0 24 13 40 21 WZW 1014,2 10
09.07.2020 14:00:00 22,2 14,1 22 12 - - WZW 1014,5 10
09.07.2020 13:00:00 20,5 14,3 22 12 40 21 WZW 1014,9 10
09.07.2020 12:00:00 19,2 13,7 28 15 40 21 WZW 1014,9 10
09.07.2020 11:00:00 19,2 14,8 24 13 - - WZW 1015,1 10
09.07.2020 10:00:00 17,0 14,8 22 12 36 19 WZW 1015,3 10
09.07.2020 09:00:00 16,7 14,9 21 11 32 18 ZW 1015,2 10
09.07.2020 08:00:00 16,1 14,7 18 10 - - WZW 1015,5 10
09.07.2020 07:00:00 16,1 14,9 18 10 32 18 ZW 1015,4 10
09.07.2020 06:00:00 16,1 14,9 21 11 32 18 ZW 1015,7 10
09.07.2020 05:00:00 15,9 14,8 16 9 - - WZW 1015,8 10
09.07.2020 04:00:00 15,7 15,0 16 9 29 16 WZW 1016,0 6
09.07.2020 03:00:00 15,7 14,8 18 10 29 16 WZW 1016,1 10
09.07.2020 02:00:00 15,8 14,9 21 11 - - WZW 1016,6 9
09.07.2020 01:00:00 15,8 15,0 18 10 29 16 WZW 1016,6 9
09.07.2020 00:00:00 15,8 15,2 18 10 32 18 WZW 1016,8 7
08.07.2020 23:00:00 15,7 15,1 13 7 - - WZW 1017,0 6
08.07.2020 22:00:00 16,0 15,4 18 10 29 16 WZW 1016,8 8
08.07.2020 21:00:00 16,1 15,4 15 8 25 14 WZW 1016,8 5
08.07.2020 20:00:00 16,3 15,7 15 8 - - WZW 1016,8 4,0
08.07.2020 19:00:00 16,3 15,6 16 9 29 16 WZW 1016,7 7
08.07.2020 18:00:00 16,2 15,5 15 8 25 14 WZW 1017,0 2,8
08.07.2020 17:00:00 16,0 15,4 13 7 - - W 1017,1 2,8
08.07.2020 16:00:00 16,0 15,3 21 11 32 18 WZW 1017,1 4,0
08.07.2020 15:00:00 15,7 14,9 16 9 29 16 ZW 1017,0 5
08.07.2020 14:00:00 15,1 14,2 18 10 - - ZW 1016,9 6
08.07.2020 13:00:00 14,6 13,5 18 10 29 16 ZW 1016,9 6
08.07.2020 12:00:00 13,6 12,8 18 10 29 16 ZW 1017,0 5
08.07.2020 11:00:00 13,0 12,3 16 9 - - ZW 1016,9 2,8
08.07.2020 10:00:00 12,4 11,8 16 9 25 14 ZZW 1016,7 2,8
08.07.2020 09:00:00 12,3 11,7 15 8 22 12 ZZW 1016,7 3,2
08.07.2020 08:00:00 11,9 11,3 15 8 - - ZW 1016,8 3,0
08.07.2020 07:00:00 12,2 10,8 13 7 22 12 ZW 1016,9 3,5
08.07.2020 06:00:00 12,8 10,1 13 7 22 12 WZW 1016,8 10
08.07.2020 05:00:00 13,0 9,3 15 8 - - WZW 1017,2 10
08.07.2020 04:00:00 13,9 8,1 16 9 25 14 WZW 1017,4 10
08.07.2020 03:00:00 14,4 8,1 13 7 22 12 W 1018,0 10
08.07.2020 02:00:00 14,8 8,3 11 6 - - W 1018,3 10
08.07.2020 01:00:00 15,4 6,5 11 6 25 14 WZW 1018,4 10
08.07.2020 00:00:00 16,0 5,6 16 9 25 14 WZW 1018,5 10
07.07.2020 23:00:00 16,9 8,6 11 6 - - W 1018,6 30
07.07.2020 22:00:00 17,8 8,5 11 6 22 12 W 1018,4 10
07.07.2020 21:00:00 18,8 8,8 11 6 22 12 W 1018,4 10
07.07.2020 20:00:00 19,4 8,1 11 6 - - W 1018,4 10
07.07.2020 19:00:00 20,1 7,6 15 8 25 14 W 1018,6 10
07.07.2020 18:00:00 19,7 7,6 11 6 25 14 W 1019,1 10
07.07.2020 17:00:00 21,0 7,9 13 7 - - W 1019,5 10
07.07.2020 16:00:00 20,7 8,1 15 8 25 14 WZW 1020,0 10
07.07.2020 15:00:00 19,0 8,8 13 7 29 16 W 1020,6 10
07.07.2020 14:00:00 17,7 8,3 15 8 - - W 1021,1 10
07.07.2020 13:00:00 18,9 9,2 11 6 29 16 - 1021,3 10
07.07.2020 12:00:00 17,7 9,1 13 7 29 16 WZW 1021,6 10
07.07.2020 11:00:00 17,9 9,5 13 7 - - WZW 1021,8 10
07.07.2020 10:00:00 16,4 11,4 11 6 22 12 ZW 1022,1 10
07.07.2020 09:00:00 13,3 10,8 11 6 18 10 ZZW 1022,2 10
07.07.2020 08:00:00 11,9 9,9 11 6 - - ZZW 1022,4 10
07.07.2020 07:00:00 10,2 9,0 9 5 14 8 ZW 1022,5 10
07.07.2020 06:00:00 9,7 8,6 9 5 11 6 Z 1022,4 10
07.07.2020 05:00:00 10,0 8,3 9 5 - - ZZW 1022,9 10
07.07.2020 04:00:00 10,9 8,4 9 5 11 6 ZW 1023,1 10
07.07.2020 03:00:00 10,5 8,0 9 5 11 6 ZZW 1023,4 10
07.07.2020 02:00:00 11,3 8,2 11 6 - - ZZW 1023,4 30
07.07.2020 01:00:00 11,5 8,3 4 2 11 6 - 1023,5 10
07.07.2020 00:00:00 12,8 7,6 5 3 11 6 W 1023,5 10
06.07.2020 23:00:00 13,0 7,4 5 3 - - W 1023,2 10
06.07.2020 22:00:00 14,8 7,2 8 4 18 10 NW 1022,6 10
06.07.2020 21:00:00 16,1 7,1 9 5 22 12 WNW 1022,1 10
06.07.2020 20:00:00 16,7 6,6 13 7 - - W 1021,6 10
06.07.2020 19:00:00 17,4 6,5 13 7 29 16 NW 1021,2 10
06.07.2020 18:00:00 17,3 6,3 11 6 36 19 NW 1020,8 10

tt = temperatuur
td = dauwpunt
ff = windsnelheid
fx = windstoten
dd = windrichting
ppp = luchtdruk
vv = zicht

Weerstations in de omgeving